Terminal Aerodrome Forecast
Issued by NWS Pueblo, CO

Home | Current Version | Previous Version | Text Only | Print | Product List | Glossary On
Versions: 1 2 3 4 5 6 7 8 9 10 11 12 13 14 15 16 17 18 19 20 21 22 23 24 25 26 27 28 29 30 31 32 33
000
FTUS45 KPUB 250527
TAFPUB
TAF
KPUB 250527Z 2506/2606 30008KT P6SM FEW120 SCT150
     FM252000 12012KT P6SM VCTS SCT090CB BKN140
     FM260300 VRB06KT P6SM SCT080 BKN140=

USA.gov is the U.S. government's official web portal to all federal, state and local government web resources and services.